www.pogodaiklimat.ru
ПОГОДА в Штёттен-ам-Ауэрберг

Архив погоды в Штёттен-ам-Ауэрберг (Германия)

Время
(UTC), дата
13 25.11
14 25.11
15 25.11
16 25.11
17 25.11
18 25.11
19 25.11
20 25.11
21 25.11
22 25.11
23 25.11
00 26.11
01 26.11
02 26.11
03 26.11
04 26.11
05 26.11
06 26.11
07 26.11
08 26.11
09 26.11
10 26.11
11 26.11
12 26.11
13 26.11
14 26.11
15 26.11
16 26.11
17 26.11
18 26.11
20 26.11
21 26.11
22 26.11
23 26.11
00 27.11
01 27.11
02 27.11
03 27.11
04 27.11
05 27.11
06 27.11
07 27.11
08 27.11
09 27.11
10 27.11
11 27.11
12 27.11
13 27.11
14 27.11
15 27.11
16 27.11
17 27.11
18 27.11
19 27.11
20 27.11
21 27.11
22 27.11
23 27.11
00 28.11
01 28.11
02 28.11
03 28.11
04 28.11
05 28.11
06 28.11
07 28.11
08 28.11
09 28.11
10 28.11
11 28.11
12 28.11
13 28.11
14 28.11
15 28.11
16 28.11
17 28.11
18 28.11
19 28.11
20 28.11
21 28.11
22 28.11
23 28.11
00 29.11
01 29.11
02 29.11
03 29.11
04 29.11
05 29.11
06 29.11
07 29.11
08 29.11
09 29.11
10 29.11
11 29.11
12 29.11
13 29.11
14 29.11
15 29.11
16 29.11
17 29.11
18 29.11
19 29.11
20 29.11
21 29.11
22 29.11
23 29.11
00 30.11
01 30.11
02 30.11
03 30.11
04 30.11
05 30.11
06 30.11
07 30.11
08 30.11
09 30.11
10 30.11
11 30.11
12 30.11
13 30.11
14 30.11
15 30.11
16 30.11
17 30.11
18 30.11
19 30.11
20 30.11
21 30.11
22 30.11
23 30.11
00 1.12
01 1.12
02 1.12
03 1.12
04 1.12
05 1.12
06 1.12
07 1.12
08 1.12
09 1.12
10 1.12
11 1.12
12 1.12
13 1.12
14 1.12
15 1.12
16 1.12
17 1.12
18 1.12
19 1.12
20 1.12
21 1.12
22 1.12
23 1.12
00 2.12
01 2.12
02 2.12
03 2.12
04 2.12
05 2.12
06 2.12
07 2.12
08 2.12
09 2.12
10 2.12
11 2.12
Ветер
(напр.,м/с)
Видим. Явления Облачность Т
(С)
Тd
(С)
f
(%)
Тe
(С)
Тes
(С)
Комфортность P
(гПа)
Po
(гПа)
Тmin
(С)
Tmax
(С)
R
(мм)
R24
(мм)
S
(см)
СЗ 4-5
{5}
500 м переохл. туман 10/10 30 м -2.1 -2.4 98 -8 -8 1011.1 922.6
СЗ 3-5
{5}
2300 м в посл. час туман 10/10 30 м -2.2 -2.6 97 -8 -8 1011.1 922.6
СЗ 3 2900 м в посл. час туман 10/10 60 м -2.4 -2.7 98 -8 -8 1011.3 922.7
СЗ 3-5
{5}
3800 м дымка 10/10 60 м -2.5 -3.0 96 -8 -8 1011.6 922.9
СЗ 4-5
{5}
3200 м дымка 10/10 60 м -2.5 -2.9 97 -9 -9 1011.8 923.1
СЗ 3 2400 м дымка 10/10 50 м -2.4 -2.8 97 -8 -8 1012.1 923.4 -3.1 -2.0
СЗ 3-4
{4}
600 м переохл. туман 10/10 30 м -2.3 -2.6 98 -8 -8 1012.0 923.4
С 3-4
{5}
100 м переохл. туман 10/10 <50 м -2.5 -2.8 98 -8 -8 1011.8 923.1
С 2 100 м переохл. туман 10/10 <50 м -2.7 -2.8 99 -7 -7 1011.6 922.9
С 3-3
{4}
100 м переохл. туман 10/10 <50 м -3.0 -3.4 97 -8 -8 1011.1 922.3
СЗ 2-3
{5}
100 м переохл. туман 10/10 <50 м -3.1 -3.3 99 -7 -7 1010.9 922.1
СЗ 3 100 м переохл. туман 10/10 <50 м -3.0 -3.4 97 -8 -8 1010.1 921.4
СЗ 2-3
{3}
100 м переохл. туман 10/10 <50 м -3.0 -3.4 97 -7 -7 1009.2 920.6
СЗ 2-2
{3}
100 м переохл. туман 10/10 <50 м -3.0 -3.4 97 -7 -7 1008.7 920.1
СЗ 2 100 м переохл. туман 10/10 <50 м -2.9 -3.2 98 -7 -7 1008.1 919.6
СЗ 3-4
{4}
100 м переохл. туман 10/10 <50 м -2.9 -3.2 98 -8 -8 1007.3 918.9
З 2-3
{4}
<100 м переохл. туман 10/10 <50 м -2.9 -3.2 98 -7 -7 1007.1 918.7
З 2 <100 м переохл. туман 10/10 <50 м -3.0 -3.3 98 -7 -7 1006.4 918.0 -3.1 -2.3
З 2-3
{3}
<100 м переохл. туман 10/10 <50 м -2.9 -3.2 98 -7 -7 1005.8 917.5
З 3-5
{5}
<100 м снежные зёрна 10/10 <50 м -2.8 -3.3 96 -8 -8 1005.6 917.4
З 3 1500 м снежные зёрна 10/10 30 м -2.6 -3.1 96 -8 -8 1004.8 916.7 0.1
ЮЗ 2 1700 м слаб. переохл. морось (гололёд) 10/10 30 м -2.4 -2.9 96 -7 -7 1004.3 916.3
З 3 300 м переохл. туман 10/10 30 м -1.8 -2.2 97 -7 -7 1003.1 915.4
З 3 1000 м в посл. час переохл. осадки (гололёд) 10/10 <50 м -1.4 -1.7 98 -7 -7 1001.9 914.4 0.0
З 3-4
{4}
100 м переохл. туман 10/10 <50 м -1.2 -1.6 97 -6 -6 1000.9 913.6
З 4 1800 м в посл. час переохл. осадки (гололёд) 10/10 30 м -1.1 -1.5 97 -7 -7 1000.3 913.1
ЮЗ 4 4000 м в посл. час переохл. осадки (гололёд) 10/10 180 м -1.0 -1.4 97 -7 -7 999.7 912.6 0.0
ЮЗ 5-7
{7}
12 км в посл. час переохл. осадки (гололёд) 10/10 1050 м -1.2 -1.6 97 -8 -8 999.4 912.2
Ю 3 15 км 10/10 720 м -1.2 -1.9 95 -6 -6 998.9 911.8
ЮЗ 6 3500 м слаб. снег 9/9 600 м -1.1 -1.6 96 -8 -8 998.4 911.3 -3.0 -0.9 0.0
ЮЗ 7 4000 м слаб. снег 10/10 210 м -1.5 -2.2 95 -9 -9 996.7 909.7
ЮЗ 8 11 км в посл. час переохл. осадки (гололёд) 10/10 270 м -1.7 -2.3 96 -10 -10 995.9 908.9 0.0
ЮЗ 7 9000 м 10/0 2000 м -1.6 -2.3 95 -9 -9 994.9 908.0
ЮЗ 7 17 км 10/0 2000 м -1.6 -2.5 94 -9 -9 993.8 907.0
ЮЗ 8 22 км 10/0 2000 м -1.7 -2.7 93 -10 -10 993.2 906.4
ЮЗ 7 30 км 10/10 1110 м -1.6 -2.9 91 -9 -9 992.5 905.8
ЮЗ 7 27 км 5/0 2000 м -1.8 -3.0 91 -9 -9 992.0 905.3
ЮЗ 6 21 км 10/0 2000 м -1.9 -2.9 93 -9 -9 991.3 904.6
Ю 6 40 км 10/10 1080 м -1.6 -3.1 89 -9 -9 991.2 904.6
Ю 4-7
{7}
30 км в посл. час снег 10/10 800 м -1.5 -2.7 92 -7 -7 991.3 904.7
ЮЗ 6 27 км снежные зёрна 10/10 600 м -1.2 -2.4 92 -8 -8 991.2 904.7 -1.9 -1.0 0.0
Ю 5 30 км в посл. час переохл. осадки (гололёд) 10/10 480 м -1.1 -2.2 92 -8 -8 991.7 905.2
ЮЗ 6 25 км в посл. час переохл. осадки (гололёд) 10/10 600 м -0.7 -1.5 94 -8 -8 992.0 905.6
Ю 5 35 км 9/9 540 м -0.4 -1.6 92 -7 -7 992.5 906.2 0.0
ЮЗ 4-6
{6}
40 км 5/5 1300 м +0.1 -1.6 88 -5 -5 992.8 906.6
Ю 3-5
{7}
40 км 3/3 700 м +1.1 -1.4 83 -3 -2 992.3 906.4
Ю 3 27 км слаб. снег 9/9 330 м +0.4 -1.1 90 -4 -4 993.0 906.9 0.0
ЮЗ 4 45 км в посл. час снег 9/9 270 м +0.8 -0.1 94 -5 -5 993.2 907.2
ЮЗ 5 >70 км 9/9 500 м +1.5 -1.2 82 -4 -4 993.6 907.7
З 7 50 км в посл. час переохл. осадки (гололёд) 9/9 60 м -0.7 -1.3 96 -8 -8 995.0 908.4 0.3
З 6-7
{11}
200 м переохл. туман 10/10 <50 м -1.2 -1.5 98 -8 -8 996.1 909.2
З 3 300 м переохл. туман 10/10 <50 м -1.2 -1.5 98 -6 -6 996.6 909.7
ЮЗ 3 55 км в посл. час туман 8/0 -1.7 -2.7 93 -7 -7 997.6 910.4 -1.8 +1.6 0.0
Ю 2 55 км 9/9 720 м -1.1 -2.3 92 -5 -5 997.8 910.8
Ю 2-4
{4}
45 км 4/4 1050 м -1.8 -2.8 93 -6 -6 997.8 910.6
ЮЗ 4 50 км 8/0 -2.3 -3.5 91 -8 -8 998.7 911.2
ЮЗ 4 60 км 10/10 750 м -1.4 -3.6 85 -7 -7 998.3 911.1
ЮЗ 3-4
{6}
>70 км 10/0 -1.6 -4.6 80 -6 -6 998.1 910.9
Ю 2 60 км 10/0 -1.1 -4.5 78 -5 -5 997.9 910.8
Ю 2-2
{3}
>70 км 10/10 1300 м -1.8 -3.8 86 -6 -6 997.5 910.3
Ю 2-3
{3}
>70 км 10/10 1320 м -1.4 -4.2 81 -5 -5 997.9 910.8
ЮЗ 1 65 км 10/10 1200 м -1.3 -4.1 81 -3 -3 997.7 910.6
ЮЗ 3 55 км в посл. час снег 10/10 1020 м -0.8 -3.9 79 -6 -6 997.1 910.2
ЮЗ 3-4
{4}
50 км 10/10 1320 м -1.0 -3.7 82 -6 -6 997.0 910.1
ЮЗ 2 55 км 10/10 600 м -1.7 -3.6 87 -6 -6 997.7 910.5 -2.3 -0.7 0.0
З 2 40 км 10/10 800 м -1.9 -3.7 87 -6 -6 997.9 910.6
З 2 45 км в посл. час снег 10/10 480 м -1.6 -3.7 86 -5 -5 998.0 910.8
З 3 50 км в посл. час снег 10/10 1300 м -1.2 -3.3 86 -6 -6 998.1 911.0 0.0
З 4-4
{4}
45 км 10/10 1260 м -1.1 -3.1 86 -7 -7 998.2 911.1
З 3-4
{5}
40 км 10/10 240 м -0.7 -2.6 87 -6 -6 997.7 910.8
СЗ 3 40 км 10/10 300 м -0.6 -2.6 86 -5 -5 997.9 911.0
З 2 40 км в посл. час снег 10/10 210 м -0.8 -2.5 88 -5 -5 997.8 910.9
З 2-3
{4}
40 км в посл. час снег 10/10 1260 м -0.8 -2.4 89 -5 -5 997.7 910.8
СЗ 2 35 км 10/10 180 м -0.9 -2.4 90 -5 -5 998.0 911.0 0.0
ЮЗ 1 26 км в посл. час снег 10/10 1200 м -1.1 -2.3 92 -3 -3 998.4 911.3
СЗ 1 26 км в посл. час снег 10/10 1380 м -1.3 -2.5 92 -4 -4 998.5 911.4
З 1 23 км в посл. час снег 10/10 1000 м -1.4 -2.3 94 -4 -4 999.0 911.8 -1.9 -0.3 0.0
С 1 12 км слаб. снег 10/10 600 м -1.6 -2.5 94 -4 -4 999.5 912.2
СЗ 2 3900 м слаб. снег 10/10 210 м -1.6 -2.4 94 -6 -6 999.7 912.4
СЗ 2 30 км в посл. час снег 9/9 570 м -1.8 -2.9 92 -6 -6 1000.0 912.6 0.1
З 2 26 км в посл. час снег 9/9 500 м -2.1 -3.0 94 -6 -6 1000.5 912.9
СЗ 2 200 м переохл. туман 10/10 <50 м -2.2 -2.7 96 -6 -6 1001.0 913.4
СЗ 2 100 м переохл. туман 10/10 <50 м -2.0 -2.2 99 -6 -6 1001.4 913.8 0.1
СЗ 2 5000 м в посл. час переохл. осадки (гололёд) 10/10 30 м -2.1 -2.5 97 -6 -6 1001.8 914.1
З 3 100 м слаб. снег 10/10 <50 м -2.0 -2.4 97 -7 -7 1002.1 914.4
СЗ 6 6000 м слаб. снег 9/9 60 м -2.3 -3.0 95 -10 -10 1002.7 914.9 0.7
СЗ 6-8
{10}
100 м переохл. туман 9/9 <50 м -2.3 -2.7 97 -10 -10 1003.5 915.6
СЗ 5-7
{9}
<100 м слаб. снег 10/10 <50 м -2.2 -2.6 97 -9 -9 1004.1 916.2
СЗ 7 1200 м в посл. час переохл. осадки (гололёд) 10/10 50 м -2.3 -2.8 96 -10 -10 1004.9 916.9 -2.5 -1.4 1 1
З 5-6
{9}
<100 м слаб. снег 10/10 <50 м -2.1 -2.4 98 -9 -9 1005.8 917.8
СЗ 6-9
{9}
<100 м слаб. дождь со снегом 10/10 <50 м -2.0 -2.4 97 -9 -9 1006.8 918.7
СЗ 6 100 м слаб. снег 9/9 <50 м -2.3 -2.8 96 -10 -10 1007.9 919.6 0.2
З 7 7000 м в посл. час переохл. осадки (гололёд) 10/10 <50 м -2.6 -3.2 96 -11 -11 1008.9 920.4
З 7-10
{10}
7000 м в посл. час туман 9/9 60 м -2.5 -3.1 96 -10 -10 1009.1 920.7
З 5 6000 м в посл. час переохл. осадки (гололёд) 9/9 60 м -2.2 -2.8 96 -9 -9 1009.6 921.2 0.1 1
З 8 14 км в посл. час снег 9/9 <50 м -2.1 -2.8 95 -10 -10 1009.9 921.5
З 7 6000 м слаб. снег 10/10 120 м -2.2 -3.0 94 -10 -10 1010.6 922.1
З 7 15 км в посл. час переохл. осадки (гололёд) 9/9 150 м -2.3 -3.2 94 -10 -10 1011.4 922.8 0.1
З 9 18 км слаб. снег 9/9 210 м -2.5 -3.6 92 -11 -11 1012.1 923.4
З 8-12
{12}
4900 м снег 9/9 150 м -2.5 -3.4 94 -11 -11 1012.9 924.1
З 8 900 м снег 9/9 <50 м -2.7 -3.3 96 -11 -11 1013.6 924.7 -2.7 -1.9 1 3
З 9-12
{13}
300 м снег 9/9 30 м -2.7 -3.3 96 -12 -12 1014.4 925.4
З 9-12
{14}
3700 м снег 10/10 30 м -2.5 -3.0 96 -11 -11 1015.0 926.0
З 10 4700 м слаб. снег 10/10 30 м -2.5 -3.1 96 -12 -12 1015.5 926.5 2
З 9-12
{13}
3800 м снежные зёрна 10/10 <50 м -2.4 -3.0 96 -11 -11 1016.0 927.0
З 9-12
{13}
800 м слаб. снег 10/10 30 м -2.2 -2.7 96 -11 -11 1016.4 927.4
З 8 2600 м слаб. снег 10/10 <50 м -2.0 -2.5 96 -10 -10 1016.5 927.6 2 5
З 9-12
{13}
1100 м дождь со снегом 10/10 <50 м -1.9 -2.4 96 -11 -11 1016.8 927.9
З 11-14
{16}
1000 м снег 9/9 30 м -1.9 -2.3 97 -11 -11 1017.4 928.4
З 11 5000 м слаб. дождь со снегом 10/10 150 м -2.0 -2.5 96 -11 -11 1017.7 928.7 2
З 12 15 км в посл. час снег 10/10 210 м -2.2 -3.7 89 -12 -12 1017.8 928.7
З 12 17 км 10/10 540 м -1.8 -4.9 79 -11 -11 1017.2 928.2
З 12 26 км 10/10 600 м -1.5 -4.8 78 -11 -11 1016.6 927.8 -2.7 -1.4 3 8
ЮЗ 12 5000 м дождь со снегом 8/8 570 м -1.6 -4.3 82 -11 -11 1016.2 927.4
ЮЗ 11 3400 м снег 10/10 330 м -2.0 -3.7 88 -11 -11 1016.1 927.2
ЮЗ 11 1300 м снег 9/9 210 м -1.6 -3.7 86 -11 -11 1015.2 926.5 0.2
ЮЗ 10 1200 м снег 10/10 240 м -1.3 -2.5 92 -10 -10 1014.9 926.3
З 12 700 м сильн. снег 9/9 150 м -0.6 -1.4 94 -10 -10 1013.6 925.4
З 11 1100 м снег 9/9 120 м -0.8 -1.4 96 -10 -10 1013.2 924.9 3 14
З 11-16
{16}
100 м снег 9/9 <50 м -0.8 -1.3 96 -10 -10 1012.5 924.3
З 12-16
{19}
100 м дождь со снегом 9/9 <50 м -0.8 -1.2 97 -10 -10 1012.9 924.7
З 13 1800 м снежные зёрна 10/10 60 м -0.2 -0.6 97 -10 -10 1013.0 925.0 3
З 11 1200 м снег 9/9 60 м -0.3 -0.6 98 -9 -9 1013.3 925.2
З 11-15
{17}
100 м снег 9/9 <50 м -0.4 -0.8 97 -9 -9 1013.4 925.3
З 11 100 м снег 9/9 <50 м -0.1 -0.5 97 -9 -9 1013.9 925.8 -2.1 0.0 9 18
З 10 1400 м дождь со снегом 9/9 30 м +0.1 -0.1 99 -8 -8 1014.1 926.1
З 11-15
{18}
3100 м слаб. морось с дождем 9/9 90 м +0.8 +0.6 99 -8 -8 1014.3 926.5
З 11 5000 м слаб. морось с дождем 10/10 150 м +1.4 +0.9 96 -7 -7 1014.2 926.6 2
З 8 15 км слаб. дождь 10/10 150 м +1.2 +0.7 96 -6 -6 1014.4 926.7
З 7 6000 м слаб. морось с дождем 10/10 30 м +1.4 +1.0 97 -6 -6 1014.2 926.6
З 6 4100 м слаб. морось с дождем 10/10 100 м +1.3 +1.0 98 -5 -5 1013.6 926.0 3 15
ЮЗ 6 30 км слаб. морось 10/10 <50 м +1.9 +1.1 94 -4 -4 1012.5 925.2
ЮЗ 5 400 м слаб. дождь 10/10 <50 м +1.0 +0.7 98 -5 -5 1012.3 924.7
З 5 35 км слаб. дождь 10/10 <50 м +1.5 +0.9 96 -4 -4 1011.4 924.0 1
ЮЗ 6 40 км слаб. дождь 10/10 180 м +1.0 +0.3 95 -6 -6 1010.4 923.0
ЮЗ 6-7
{9}
65 км в посл. час снег 10/10 360 м +1.2 +0.5 95 -5 -5 1009.5 922.2
ЮЗ 7 55 км 10/10 300 м +1.2 +0.4 94 -6 -6 1008.5 921.3 -0.3 +2.1 4 9
ЮЗ 6-10
{10}
60 км 9/9 500 м +1.7 +0.6 92 -5 -5 1007.5 920.5
ЮЗ 12-15
{15}
>70 км 9/9 700 м +3.3 -0.1 78 -4 -4 1006.0 919.6
ЮЗ 10 >70 км 10/10 700 м +3.3 +0.2 80 -4 -4 1005.0 918.7
ЮЗ 7 >70 км 10/10 750 м +3.2 +0.6 83 -3 -3 1004.2 918.0
ЮЗ 7 65 км 10/10 840 м +3.6 +1.0 83 -2 -2 1002.4 916.4
ЮЗ 9 >70 км 10/10 720 м +4.0 +1.1 81 -2 -2 1001.0 915.3 7
ЮЗ 8 60 км 10/10 800 м +4.0 +1.3 83 -2 -2 1000.1 914.5
ЮЗ 9-11
{11}
15 км слаб. дождь 9/9 660 м +4.2 +1.9 85 -2 -2 999.0 913.5
ЮЗ 8 55 км в посл. час дождь 10/10 570 м +4.3 +2.4 87 -2 -2 998.5 913.1 0.2
ЮЗ 9 >70 км в посл. час дождь 9/9 660 м +5.2 +2.0 80 -1 -1 997.9 912.8
З 14 >70 км 10/10 630 м +5.4 +1.5 76 -2 -2 998.2 913.1
З 11 >70 км слаб. дождь 10/10 600 м +5.0 +1.5 78 -2 -2 998.7 913.5 +1.2 +5.8 0.3 5
З 12 >70 км в посл. час дождь 9/9 540 м +4.8 +1.5 79 -2 -2 999.7 914.3
З 11 >70 км 10/10 480 м +4.2 +1.6 83 -3 -3 1000.4 914.8
З 9 >70 км 9/9 500 м +4.2 +1.3 81 -2 -2 1000.3 914.7 0.1
З 12 >70 км 10/10 540 м +4.2 +0.8 79 -3 -3 1000.2 914.6
З 12 >70 км 9/9 360 м +3.5 +1.1 84 -4 -4 1000.6 914.8
З 10 25 км слаб. дождь 9/9 200 м +2.6 +1.5 92 -5 -5 1000.8 914.7 0.2 4
З 8 28 км в посл. час снег 9/9 120 м +1.8 +1.2 96 -5 -5 1001.2 914.8
З 7 60 км в посл. час снег 10/10 420 м +1.8 -0.2 87 -5 -5 1001.2 914.8
З 8 7000 м слаб. морось с дождем 9/9 300 м +1.5 +0.2 91 -6 -6 1001.4 914.9 0.4
З 8-11
{14}
14 км в посл. час снег 9/9 30 м +1.1 +0.7 97 -6 -6 1001.4 914.8
З 8 50 км 10/10 270 м +1.2 +0.2 93 -6 -6 1001.2 914.6
З 6 24 км дождь со снегом 9/9 200 м +1.3 +0.2 92 -5 -5 1001.3 914.7 +0.8 +5.2 1 3
З 7 8000 м слаб. снег 9/9 150 м +0.7 0.0 95 -6 -6 1001.6 914.8
З 7 8000 м слаб. снег 9/9 30 м +0.4 +0.1 98 -7 -7 1001.8 914.9
З 6 30 км в посл. час снег 10/10 90 м +1.0 +0.5 96 -6 -6 1001.7 915.0 2
З 7 45 км 9/9 240 м +1.7 +0.5 92 -5 -5 1001.5 915.0
З 9 60 км в посл. час дождь 10/10 330 м +2.0 +0.5 90 -5 -5 1000.7 914.4
Местоположение метеостанции Штёттен-ам-Ауэрберг (Германия): широта 48.67 долгота 9.87 высота над уровнем моря 734 м.
В архиве по умолчанию представлена погода в Штёттен-ам-Ауэрберг за последнюю неделю. Архивные данные за месяц целиком и за предыдущие месяцы, начиная с января 2011 года, Вы можете получить, выбрав интересующий диапазон дат из раскрывающегося списка и нажав кнопку "Найти!".
*Определитесь, кто Вы:
Внимание! Время в таблицах - всемирное. Для получения местного времени необходимо прибавить поправку, которая равна 1 ч.
Смотрите также архив погоды в соседних городах и на ближайших метеорологических станциях:
Партнеры нашего сайта:      
Пояснения к столбцам:
  • Ветер - указаны скорость ветра в м/с - средняя за 10 мин, порывы в срок и между сроками (в фигурных скобках) и направление, откуда дует ветер: С - северный,
  • СВ - северо-восточный, В - восточный, ЮВ - юго-восточный, Ю - южный, ЮЗ - юго-западный, З - западный, СЗ - северо-западный.
  • Видимость - горизонтальная дальность видимости в метрах или километрах. При видимости от 1 до 10 км при отсутствии осадков обычно наблюдается дымка, при ухудшении видимости до 1 км и менее - туман. В сухую погоду видимость может ухудшаться дымом, пылью или мглою.
  • Явления - указаны атмосферные явления, наблюдавшиеся в срок или в последний час перед сроком; фигурными скобками обозначены явления, наблюдавшиеся между сроками (за 1-3 часа до срока); квадратными скобками обозначены град или гололедные отложения с указанием их диаметра в мм.
  • Облачность - указаны через наклонную черту общая и нижняя облачность в баллах и высота нижней границы облаков в метрах; квадратными скобками обозначены формы облаков: Ci - перистые, Cs - перисто-слоистые, Cc - перисто-кучевые, Ac - высококучевые, As - высокослоистые, Sc - слоисто-кучевые, Ns - слоисто-дождевые, Cu - кучевые, Cb - кучево-дождевые. Подробнее классификацию облаков см. в Атласе облаков (PDF).
  • T - Температура воздуха - температура, измеренная на высоте 2 м над землей.
  • Td - Температура точки росы - температура, при понижении до которой содержащийся в воздухе водяной пар достигнет насыщения.
  • f - Относительная влажность воздуха - влажноcть воздуха, измеренная на высоте 2 м над землей.
  • Te - Эффективная температура - температура, которую ощущает одетый по сезону человек в тени. Характеристика душности погоды. При расчете учитывается влияние влажности воздуха и скорости ветра на теплоощущения человека.
  • Tes - Эффективная температура на солнце - температура, которую ощущает человек, с поправкой на солнечный нагрев. Характеристика знойности погоды. Зависит от высоты солнца над горизонтом, облачности и скорости ветра. Ночью, в пасмурную погоду, а также при ветре 12 м/с и более поправка равна нулю.
  • P - Атмосферное давление - приведенное к уровню моря атмосферное давление.
  • Po - Атмосферное давление - измеренное на уровне метеостанции атмосферное давление.
  • Tmin - Минимальная температура - минимум температуры воздуха на высоте 2 м над землей.
  • Tmax - Максимальная температура - максимум температуры воздуха на высоте 2 м над землей.
  • R - Количество осадков - Количество выпавших осадков за период времени, мм. При наведении курсора мыши на число - период времени, за который выпало указанное количество осадков.
  • R24 - Количество осадков - Количество выпавших осадков за 24 часа, мм.
  • S - Снежный покров - Высота снежного покрова, см. При наведении курсора мыши на число - состояние снежного покрова и степень покрытия местности в баллах.